CZ-6A R/B, 63605

Orbit data source: Space-Track

CZ-6A R/B, 63605 is space debris in SSO originally from a launch on Fri, 18 Apr 2025 UTC launched from the Taiyaun Space Center, China (TSC). Debris objects in space refer to the collection of defunct objects orbiting the Earth. Examples of debris include non-operational satellites, rocket bodies, and fragments generated from explosions, collisions, or faulty payload assembly.

Loading next visibility...
Identifier
63605, 2025-078G
Orbit
SSO
Last TLE update
5 hours ago
Origin
Manufacturer
SAST
Mission
Spacecraft
Bus & Motor
CZ-6A STAGE 2, YF-115
Mass
~6,000 kg wet, ~6,000 kg dry
Launch date (UTC)
2025-04-18 (2 months ago)
Launch vehicle
Unknown
Launch site
Taiyaun Space Center, China (TSC)
Object type
Payload
Rocket body
Debris
Shape & HBR
Unknown shape, 11 m
Radar Cross Section
Large (>1 m²)

Expand to show TLE details & history

TLE from 5 hours ago
0 CZ-6A R/B
1 63605U 25078G   25181.88412870  .00000154  00000-0  14530-3 0  9993
2 63605  99.6996 194.0218 0105402 273.7876  85.1236 13.94751829 10147
Epoch: 2025-06-30T21:13Z
TLE epoch observation values (Epoch: 2025-06-30T21:13:08.719Z)
Latitude
-0.00012°
Longitude
-43.45204°
Altitude
909.145 km
Speed
7.4 km/s
True Right ascension
12h 56m 05s
True Declination
0° 00' 00"
Sunlit
Object was in daylight at epoch
Visualization orbit readout
Latitude
11.26505°
Longitude
-45.16452°
Altitude
924.377 km
Speed
7.385 km/s
Apparent Right ascension
10h 42m 14s
Apparent Declination
-41° 50' 52"
Sunlit
Object is in daylight
Visualization observer readout
Local Sidereal Time
14:03:26
Azimuth
215.05° SW
Elevation
-3.62°
Doppler factor
1
Orbital elements
Apogee altitude
986.078 km
Perigee altitude
832.456 km
Semi-major axis
7,287.404 km
Eccentricity
0.01054
Inclination
99.6996°
RAAN
194.0218°
Arg. of periapsis
273.7876°
True anomaly
Unknown
Mean anomaly
85.1236°
Eccentric anomaly
Unknown
Mean motion
3.48886 °/min
Orbital period
103.19 mins
BSTAR
0.0001453
Loading maneuver chart data...
Loading SW <> Apogee altitude chart data...
Loading historical data...
Loading historical data...
Loading historical data...
Loading historical data...
Loading historical data...
Loading historical data...
Loading historical data...

CZ-6A R/B Visibility forecast

Observer location: undefined°, undefined°

Span
Click to sort rows by Start time (UTC) header in descending order
Start Az.
Max El. time (UTC)
Max El. Az.
Max El.
End time (UTC)
End Az.
10 mins2025-07-01 13:19:18.326Z29.457° NE2025-07-01 13:23:18.326Z84.307° E38.134°2025-07-01 13:29:18.326Z176.661° S
7 mins2025-07-01 15:02:18.326Z335.587° NNW2025-07-01 15:05:18.326Z296.265° NW22.842°2025-07-01 15:09:18.326Z249.892° W
5 mins2025-07-01 23:14:18.326Z82.767° E2025-07-01 23:16:18.326Z59.41° ENE17.192°2025-07-01 23:19:18.326Z26.229° NE
10 mins2025-07-02 00:53:18.326Z172.569° S2025-07-02 00:57:18.326Z237.681° WSW43.993°2025-07-02 01:03:18.326Z341.698° N
|